Year,Month,Day,Hour,Minute,Value (Times are PST for windspeed in km/hr)
2010,08,26,00,00,1.40
2010,08,26,00,01,0.00
2010,08,26,00,02,0.00
2010,08,26,00,03,0.00
2010,08,26,00,04,0.00
2010,08,26,00,05,0.00
2010,08,26,00,06,0.00
2010,08,26,00,07,0.00
2010,08,26,00,08,0.00
2010,08,26,00,09,0.00
2010,08,26,00,10,0.00
2010,08,26,00,11,0.00
2010,08,26,00,12,0.00
2010,08,26,00,13,0.00
2010,08,26,00,14,0.00
2010,08,26,00,15,0.30
2010,08,26,00,16,0.20
2010,08,26,00,17,0.90
2010,08,26,00,18,1.50
2010,08,26,00,19,2.50
2010,08,26,00,20,2.20
2010,08,26,00,21,2.00
2010,08,26,00,22,2.50
2010,08,26,00,23,2.10
2010,08,26,00,24,1.50
2010,08,26,00,25,0.90
2010,08,26,00,26,1.70
2010,08,26,00,27,1.90
2010,08,26,00,28,2.00
2010,08,26,00,29,0.80
2010,08,26,00,30,0.20
2010,08,26,00,31,0.00
2010,08,26,00,32,0.00
2010,08,26,00,33,0.00
2010,08,26,00,34,0.00
2010,08,26,00,35,0.00
2010,08,26,00,36,0.00
2010,08,26,00,37,0.00
2010,08,26,00,38,0.00
2010,08,26,00,39,0.00
2010,08,26,00,40,0.00
2010,08,26,00,41,0.00
2010,08,26,00,42,0.00
2010,08,26,00,43,0.00
2010,08,26,00,44,0.00
2010,08,26,00,45,1.40
2010,08,26,00,46,0.00
2010,08,26,00,47,0.00
2010,08,26,00,48,0.30
2010,08,26,00,49,0.00
2010,08,26,00,50,0.00
2010,08,26,00,51,0.00
2010,08,26,00,52,0.00
2010,08,26,00,53,0.00
2010,08,26,00,54,0.00
2010,08,26,00,55,1.00
2010,08,26,00,56,0.10
2010,08,26,00,57,1.50
2010,08,26,00,58,0.30
2010,08,26,00,59,0.00
2010,08,26,01,00,0.00
2010,08,26,01,01,0.00
2010,08,26,01,02,0.00
2010,08,26,01,03,0.00
2010,08,26,01,04,0.00
2010,08,26,01,05,0.70
2010,08,26,01,06,3.40
2010,08,26,01,07,2.40
2010,08,26,01,08,1.80
2010,08,26,01,09,2.40
2010,08,26,01,10,2.20
2010,08,26,01,11,2.20
2010,08,26,01,12,2.10
2010,08,26,01,13,3.40
2010,08,26,01,14,2.40
2010,08,26,01,15,0.80
2010,08,26,01,16,0.00
2010,08,26,01,17,0.00
2010,08,26,01,18,0.00
2010,08,26,01,19,0.00
2010,08,26,01,20,0.00
2010,08,26,01,21,0.00
2010,08,26,01,22,0.00
2010,08,26,01,23,0.00
2010,08,26,01,24,0.00
2010,08,26,01,25,1.00
2010,08,26,01,26,1.70
2010,08,26,01,27,0.30
2010,08,26,01,28,0.90
2010,08,26,01,29,1.20
2010,08,26,01,30,2.00
2010,08,26,01,31,1.40
2010,08,26,01,32,1.40
2010,08,26,01,33,1.50
2010,08,26,01,34,1.40
2010,08,26,01,35,2.00
2010,08,26,01,36,1.40
2010,08,26,01,37,2.60
2010,08,26,01,38,1.20
2010,08,26,01,39,0.00
2010,08,26,01,40,0.00
2010,08,26,01,41,0.00
2010,08,26,01,42,0.00
2010,08,26,01,43,0.00
2010,08,26,01,44,0.00
2010,08,26,01,45,0.00
2010,08,26,01,46,0.00
2010,08,26,01,47,0.00
2010,08,26,01,48,0.00
2010,08,26,01,49,0.00
2010,08,26,01,50,0.00
2010,08,26,01,51,0.00
2010,08,26,01,52,1.10
2010,08,26,01,53,2.70
2010,08,26,01,54,1.60
2010,08,26,01,55,0.30
2010,08,26,01,56,0.90
2010,08,26,01,57,0.60
2010,08,26,01,58,0.00
2010,08,26,01,59,0.00
2010,08,26,02,00,0.00
2010,08,26,02,01,0.00
2010,08,26,02,02,0.00
2010,08,26,02,03,0.00
2010,08,26,02,04,0.00
2010,08,26,02,05,0.00
2010,08,26,02,06,0.00
2010,08,26,02,07,0.00
2010,08,26,02,08,0.00
2010,08,26,02,09,0.00
2010,08,26,02,10,0.00
2010,08,26,02,11,0.00
2010,08,26,02,12,0.00
2010,08,26,02,13,0.00
2010,08,26,02,14,0.00
2010,08,26,02,15,3.20
2010,08,26,02,16,4.70
2010,08,26,02,17,3.10
2010,08,26,02,18,3.70
2010,08,26,02,19,7.50
2010,08,26,02,20,4.90
2010,08,26,02,21,4.10
2010,08,26,02,22,4.20
2010,08,26,02,23,6.00
2010,08,26,02,24,6.40
2010,08,26,02,25,5.30
2010,08,26,02,26,3.00
2010,08,26,02,27,0.70
2010,08,26,02,28,4.50
2010,08,26,02,29,1.60
2010,08,26,02,30,0.30
2010,08,26,02,31,1.40
2010,08,26,02,32,0.90
2010,08,26,02,33,3.20
2010,08,26,02,34,2.10
2010,08,26,02,35,0.00
2010,08,26,02,36,0.20
2010,08,26,02,37,2.00
2010,08,26,02,38,3.00
2010,08,26,02,39,3.30
2010,08,26,02,40,4.30
2010,08,26,02,41,6.20
2010,08,26,02,42,4.80
2010,08,26,02,43,5.50
2010,08,26,02,44,3.70
2010,08,26,02,45,5.30
2010,08,26,02,46,5.10
2010,08,26,02,47,4.70
2010,08,26,02,48,4.70
2010,08,26,02,49,4.50
2010,08,26,02,50,2.50
2010,08,26,02,51,0.00
2010,08,26,02,52,0.00
2010,08,26,02,53,0.00
2010,08,26,02,54,0.00
2010,08,26,02,55,0.10
2010,08,26,02,56,0.00
2010,08,26,02,57,1.50
2010,08,26,02,58,1.40
2010,08,26,02,59,1.20
2010,08,26,03,00,0.00
2010,08,26,03,01,0.30
2010,08,26,03,02,3.90
2010,08,26,03,03,2.30
2010,08,26,03,04,2.10
2010,08,26,03,05,0.10
2010,08,26,03,06,0.80
2010,08,26,03,07,0.90
2010,08,26,03,08,4.30
2010,08,26,03,09,2.50
2010,08,26,03,10,3.70
2010,08,26,03,11,2.60
2010,08,26,03,12,0.00
2010,08,26,03,13,0.00
2010,08,26,03,14,0.00
2010,08,26,03,15,0.00
2010,08,26,03,16,1.40
2010,08,26,03,17,4.30
2010,08,26,03,18,2.40
2010,08,26,03,19,0.00
2010,08,26,03,20,0.60
2010,08,26,03,21,2.80
2010,08,26,03,22,0.00
2010,08,26,03,23,0.00
2010,08,26,03,24,0.10
2010,08,26,03,25,0.20
2010,08,26,03,26,0.00
2010,08,26,03,27,0.00
2010,08,26,03,28,1.90
2010,08,26,03,29,2.40
2010,08,26,03,30,0.00
2010,08,26,03,31,0.00
2010,08,26,03,32,0.00
2010,08,26,03,33,0.20
2010,08,26,03,34,0.00
2010,08,26,03,35,1.00
2010,08,26,03,36,2.10
2010,08,26,03,37,0.80
2010,08,26,03,38,0.00
2010,08,26,03,39,0.00
2010,08,26,03,40,0.00
2010,08,26,03,41,0.00
2010,08,26,03,42,0.00
2010,08,26,03,43,0.10
2010,08,26,03,44,0.00
2010,08,26,03,45,2.50
2010,08,26,03,46,1.00
2010,08,26,03,47,1.60
2010,08,26,03,48,0.10
2010,08,26,03,49,3.10
2010,08,26,03,50,0.40
2010,08,26,03,51,0.20
2010,08,26,03,52,0.00
2010,08,26,03,53,0.00
2010,08,26,03,54,0.00
2010,08,26,03,55,0.00
2010,08,26,03,56,0.00
2010,08,26,03,57,0.00
2010,08,26,03,58,0.00
2010,08,26,03,59,0.00
2010,08,26,04,00,0.00
2010,08,26,04,01,0.00
2010,08,26,04,02,0.00
2010,08,26,04,03,0.00
2010,08,26,04,04,0.00
2010,08,26,04,05,0.00
2010,08,26,04,06,0.00
2010,08,26,04,07,0.00
2010,08,26,04,08,0.00
2010,08,26,04,09,0.00
2010,08,26,04,10,0.30
2010,08,26,04,11,0.00
2010,08,26,04,12,0.00
2010,08,26,04,13,0.00
2010,08,26,04,14,0.00
2010,08,26,04,15,0.10
2010,08,26,04,16,2.20
2010,08,26,04,17,2.60
2010,08,26,04,18,2.20
2010,08,26,04,19,0.50
2010,08,26,04,20,0.00
2010,08,26,04,21,0.00
2010,08,26,04,22,0.30
2010,08,26,04,23,0.20
2010,08,26,04,24,0.00
2010,08,26,04,25,0.00
2010,08,26,04,26,0.00
2010,08,26,04,27,0.00
2010,08,26,04,28,0.00
2010,08,26,04,29,0.00
2010,08,26,04,30,0.00
2010,08,26,04,31,1.00
2010,08,26,04,32,1.90
2010,08,26,04,33,4.40
2010,08,26,04,34,2.80
2010,08,26,04,35,1.90
2010,08,26,04,36,1.50
2010,08,26,04,37,1.20
2010,08,26,04,38,2.90
2010,08,26,04,39,1.60
2010,08,26,04,40,1.30
2010,08,26,04,41,0.30
2010,08,26,04,42,0.00
2010,08,26,04,43,0.00
2010,08,26,04,44,0.00
2010,08,26,04,45,0.00
2010,08,26,04,46,0.20
2010,08,26,04,47,0.30
2010,08,26,04,48,1.90
2010,08,26,04,49,2.60
2010,08,26,04,50,2.60
2010,08,26,04,51,2.60
2010,08,26,04,52,3.20
2010,08,26,04,53,3.20
2010,08,26,04,54,2.50
2010,08,26,04,55,2.10
2010,08,26,04,56,4.00
2010,08,26,04,57,1.00
2010,08,26,04,58,0.00
2010,08,26,04,59,0.00
2010,08,26,05,00,0.00
2010,08,26,05,01,0.00
2010,08,26,05,02,0.00
2010,08,26,05,03,0.00
2010,08,26,05,04,0.00
2010,08,26,05,05,0.00
2010,08,26,05,06,0.00
2010,08,26,05,07,0.00
2010,08,26,05,08,0.00
2010,08,26,05,09,0.00
2010,08,26,05,10,0.00
2010,08,26,05,11,0.00
2010,08,26,05,12,0.00
2010,08,26,05,13,0.00
2010,08,26,05,14,0.00
2010,08,26,05,15,0.00
2010,08,26,05,16,0.00
2010,08,26,05,17,0.00
2010,08,26,05,18,0.00
2010,08,26,05,19,0.00
2010,08,26,05,20,0.00
2010,08,26,05,21,0.00
2010,08,26,05,22,0.00
2010,08,26,05,23,0.00
2010,08,26,05,24,0.00
2010,08,26,05,25,0.00
2010,08,26,05,26,0.00
2010,08,26,05,27,0.00
2010,08,26,05,28,0.00
2010,08,26,05,29,0.00
2010,08,26,05,30,0.00
2010,08,26,05,31,0.00
2010,08,26,05,32,0.00
2010,08,26,05,33,0.00
2010,08,26,05,34,0.00
2010,08,26,05,35,0.00
2010,08,26,05,36,0.00
2010,08,26,05,37,0.00
2010,08,26,05,38,0.00
2010,08,26,05,39,0.00
2010,08,26,05,40,0.00
2010,08,26,05,41,0.00
2010,08,26,05,42,0.10
2010,08,26,05,43,0.10
2010,08,26,05,44,3.20
2010,08,26,05,45,2.40
2010,08,26,05,46,1.70
2010,08,26,05,47,1.10
2010,08,26,05,48,0.10
2010,08,26,05,49,0.00
2010,08,26,05,50,0.00
2010,08,26,05,51,0.00
2010,08,26,05,52,0.00
2010,08,26,05,53,0.00
2010,08,26,05,54,0.00
2010,08,26,05,55,0.00
2010,08,26,05,56,0.00
2010,08,26,05,57,0.00
2010,08,26,05,58,0.00
2010,08,26,05,59,0.00
2010,08,26,06,00,0.00
2010,08,26,06,01,0.00
2010,08,26,06,02,0.00
2010,08,26,06,03,0.00
2010,08,26,06,04,0.00
2010,08,26,06,05,0.00
2010,08,26,06,06,0.00
2010,08,26,06,07,0.00
2010,08,26,06,08,0.20
2010,08,26,06,09,2.20
2010,08,26,06,10,2.00
2010,08,26,06,11,2.10
2010,08,26,06,12,1.00
2010,08,26,06,13,0.00
2010,08,26,06,14,0.10
2010,08,26,06,15,0.00
2010,08,26,06,16,0.00
2010,08,26,06,17,0.00
2010,08,26,06,18,0.00
2010,08,26,06,19,0.00
2010,08,26,06,20,1.00
2010,08,26,06,21,0.90
2010,08,26,06,22,0.20
2010,08,26,06,23,0.00
2010,08,26,06,24,0.00
2010,08,26,06,25,1.60
2010,08,26,06,26,3.60
2010,08,26,06,27,3.50
2010,08,26,06,28,4.10
2010,08,26,06,29,3.40
2010,08,26,06,30,4.10
2010,08,26,06,31,2.50
2010,08,26,06,32,2.60
2010,08,26,06,33,2.60
2010,08,26,06,34,1.20
2010,08,26,06,35,0.90
2010,08,26,06,36,1.40
2010,08,26,06,37,2.20
2010,08,26,06,38,1.50
2010,08,26,06,39,2.50
2010,08,26,06,40,1.90
2010,08,26,06,41,4.00
2010,08,26,06,42,3.40
2010,08,26,06,43,2.20
2010,08,26,06,44,3.30
2010,08,26,06,45,1.00
2010,08,26,06,46,0.30
2010,08,26,06,47,0.00
2010,08,26,06,48,0.00
2010,08,26,06,49,0.00
2010,08,26,06,50,0.00
2010,08,26,06,51,0.00
2010,08,26,06,52,0.00
2010,08,26,06,53,0.00
2010,08,26,06,54,0.00
2010,08,26,06,55,0.00
2010,08,26,06,56,0.00
2010,08,26,06,57,0.00
2010,08,26,06,58,0.00
2010,08,26,06,59,0.00
2010,08,26,07,00,0.00
2010,08,26,07,01,0.00
2010,08,26,07,02,1.10
2010,08,26,07,03,3.00
2010,08,26,07,04,0.20
2010,08,26,07,05,0.00
2010,08,26,07,06,0.10
2010,08,26,07,07,1.20
2010,08,26,07,08,1.90
2010,08,26,07,09,0.30
2010,08,26,07,10,0.00
2010,08,26,07,11,0.20
2010,08,26,07,12,0.00
2010,08,26,07,13,0.00
2010,08,26,07,14,0.00
2010,08,26,07,15,0.00
2010,08,26,07,16,0.00
2010,08,26,07,17,0.00
2010,08,26,07,18,0.00
2010,08,26,07,19,0.00
2010,08,26,07,20,1.60
2010,08,26,07,21,1.90
2010,08,26,07,22,0.80
2010,08,26,07,23,0.80
2010,08,26,07,24,0.00
2010,08,26,07,25,0.00
2010,08,26,07,26,1.70
2010,08,26,07,27,2.30
2010,08,26,07,28,1.40
2010,08,26,07,29,3.40
2010,08,26,07,30,4.20
2010,08,26,07,31,3.30
2010,08,26,07,32,3.80
2010,08,26,07,33,0.70
2010,08,26,07,34,0.60
2010,08,26,07,35,0.00
2010,08,26,07,36,0.00
2010,08,26,07,37,0.00
2010,08,26,07,38,3.90
2010,08,26,07,39,3.60
2010,08,26,07,40,2.90
2010,08,26,07,41,1.40
2010,08,26,07,42,1.50
2010,08,26,07,43,0.80
2010,08,26,07,44,0.10
2010,08,26,07,45,0.00
2010,08,26,07,46,0.20
2010,08,26,07,47,0.90
2010,08,26,07,48,2.00
2010,08,26,07,49,0.90
2010,08,26,07,50,0.00
2010,08,26,07,51,0.00
2010,08,26,07,52,0.00
2010,08,26,07,53,0.00
2010,08,26,07,54,0.00
2010,08,26,07,55,0.00
2010,08,26,07,56,0.30
2010,08,26,07,57,0.00
2010,08,26,07,58,0.00
2010,08,26,07,59,0.00
2010,08,26,08,00,0.00
2010,08,26,08,01,0.00
2010,08,26,08,02,0.00
2010,08,26,08,03,0.00
2010,08,26,08,04,0.00
2010,08,26,08,05,0.00
2010,08,26,08,06,0.00
2010,08,26,08,07,0.00
2010,08,26,08,08,0.40
2010,08,26,08,09,0.60
2010,08,26,08,10,1.10
2010,08,26,08,11,0.90
2010,08,26,08,12,2.70
2010,08,26,08,13,2.80
2010,08,26,08,14,1.90
2010,08,26,08,15,1.90
2010,08,26,08,16,2.30
2010,08,26,08,17,2.60
2010,08,26,08,18,3.40
2010,08,26,08,19,3.00
2010,08,26,08,20,3.00
2010,08,26,08,21,0.60
2010,08,26,08,22,0.00
2010,08,26,08,23,0.00
2010,08,26,08,24,0.00
2010,08,26,08,25,0.00
2010,08,26,08,26,0.00
2010,08,26,08,27,0.10
2010,08,26,08,28,1.30
2010,08,26,08,29,2.50
2010,08,26,08,30,3.10
2010,08,26,08,31,2.60
2010,08,26,08,32,2.90
2010,08,26,08,33,0.00
2010,08,26,08,34,0.00
2010,08,26,08,35,1.40
2010,08,26,08,36,0.80
2010,08,26,08,37,1.30
2010,08,26,08,38,1.40
2010,08,26,08,39,2.00
2010,08,26,08,40,0.00
2010,08,26,08,41,0.30
2010,08,26,08,42,0.00
2010,08,26,08,43,0.00
2010,08,26,08,44,2.40
2010,08,26,08,45,3.40
2010,08,26,08,46,3.50
2010,08,26,08,47,4.30
2010,08,26,08,48,3.00
2010,08,26,08,49,1.60
2010,08,26,08,50,2.20
2010,08,26,08,51,0.50
2010,08,26,08,52,0.90
2010,08,26,08,53,1.30
2010,08,26,08,54,0.90
2010,08,26,08,55,0.30
2010,08,26,08,56,2.40
2010,08,26,08,57,1.50
2010,08,26,08,58,0.00
2010,08,26,08,59,0.00
2010,08,26,09,00,0.00
2010,08,26,09,01,1.90
2010,08,26,09,02,1.30
2010,08,26,09,03,0.00
2010,08,26,09,04,2.00
2010,08,26,09,05,2.10
2010,08,26,09,06,0.10
2010,08,26,09,07,0.00
2010,08,26,09,08,1.40
2010,08,26,09,09,2.80
2010,08,26,09,10,1.70
2010,08,26,09,11,0.70
2010,08,26,09,12,0.10
2010,08,26,09,13,0.00
2010,08,26,09,14,0.30
2010,08,26,09,15,2.10
2010,08,26,09,16,2.00
2010,08,26,09,17,2.30
2010,08,26,09,18,0.30
2010,08,26,09,19,3.90
2010,08,26,09,20,3.50
2010,08,26,09,21,4.00
2010,08,26,09,22,3.60
2010,08,26,09,23,5.30
2010,08,26,09,24,3.50
2010,08,26,09,25,2.40
2010,08,26,09,26,2.30
2010,08,26,09,27,4.20
2010,08,26,09,28,5.40
2010,08,26,09,29,6.10
2010,08,26,09,30,5.10
2010,08,26,09,31,6.90
2010,08,26,09,32,6.40
2010,08,26,09,33,6.50
2010,08,26,09,34,5.10
2010,08,26,09,35,1.40
2010,08,26,09,36,0.90
2010,08,26,09,37,0.20
2010,08,26,09,38,5.70
2010,08,26,09,39,4.80
2010,08,26,09,40,5.80
2010,08,26,09,41,7.20
2010,08,26,09,42,6.60
2010,08,26,09,43,5.50
2010,08,26,09,44,6.80
2010,08,26,09,45,7.50
2010,08,26,09,46,7.00
2010,08,26,09,47,4.20
2010,08,26,09,48,2.60
2010,08,26,09,49,3.00
2010,08,26,09,50,0.00
2010,08,26,09,51,0.90
2010,08,26,09,52,0.20
2010,08,26,09,53,2.60
2010,08,26,09,54,3.80
2010,08,26,09,55,4.70
2010,08,26,09,56,4.10
2010,08,26,09,57,2.90
2010,08,26,09,58,0.90
2010,08,26,09,59,0.00
2010,08,26,10,00,0.00
2010,08,26,10,01,0.00
2010,08,26,10,02,0.00
2010,08,26,10,03,1.00
2010,08,26,10,04,3.50
2010,08,26,10,05,2.80
2010,08,26,10,06,1.40
2010,08,26,10,07,5.30
2010,08,26,10,08,4.20
2010,08,26,10,09,3.90
2010,08,26,10,10,4.00
2010,08,26,10,11,4.20
2010,08,26,10,12,2.00
2010,08,26,10,13,2.00
2010,08,26,10,14,3.50
2010,08,26,10,15,4.30
2010,08,26,10,16,6.40
2010,08,26,10,17,5.30
2010,08,26,10,18,7.30
2010,08,26,10,19,6.50
2010,08,26,10,20,5.60
2010,08,26,10,21,2.50
2010,08,26,10,22,3.60
2010,08,26,10,23,3.80
2010,08,26,10,24,5.80
2010,08,26,10,25,4.70
2010,08,26,10,26,5.30
2010,08,26,10,27,5.10
2010,08,26,10,28,2.50
2010,08,26,10,29,1.50
2010,08,26,10,30,1.40
2010,08,26,10,31,4.10
2010,08,26,10,32,5.40
2010,08,26,10,33,4.80
2010,08,26,10,34,3.80
2010,08,26,10,35,2.90
2010,08,26,10,36,3.40
2010,08,26,10,37,3.50
2010,08,26,10,38,1.70
2010,08,26,10,39,5.80
2010,08,26,10,40,6.40
2010,08,26,10,41,6.00
2010,08,26,10,42,6.80
2010,08,26,10,43,6.20
2010,08,26,10,44,5.30
2010,08,26,10,45,6.70
2010,08,26,10,46,6.90
2010,08,26,10,47,5.80
2010,08,26,10,48,7.80
2010,08,26,10,49,4.70
2010,08,26,10,50,3.60
2010,08,26,10,51,1.50
2010,08,26,10,52,2.60
2010,08,26,10,53,8.20
2010,08,26,10,54,7.70
2010,08,26,10,55,7.50
2010,08,26,10,56,8.70
2010,08,26,10,57,7.20
2010,08,26,10,58,5.50
2010,08,26,10,59,0.50
2010,08,26,11,00,6.20
2010,08,26,11,01,5.60
2010,08,26,11,02,3.20
2010,08,26,11,03,4.80
2010,08,26,11,04,3.70
2010,08,26,11,05,6.50
2010,08,26,11,06,4.20
2010,08,26,11,07,1.30
2010,08,26,11,08,2.30
2010,08,26,11,09,5.40
2010,08,26,11,10,10.30
2010,08,26,11,11,9.70
2010,08,26,11,12,7.40
2010,08,26,11,13,4.80
2010,08,26,11,14,8.90
2010,08,26,11,15,9.70
2010,08,26,11,16,17.00
2010,08,26,11,17,14.90
2010,08,26,11,18,10.50
2010,08,26,11,19,6.90
2010,08,26,11,20,6.20
2010,08,26,11,21,6.70
2010,08,26,11,22,9.10
2010,08,26,11,23,6.70
2010,08,26,11,24,14.60
2010,08,26,11,25,12.60
2010,08,26,11,26,6.60
2010,08,26,11,27,8.00
2010,08,26,11,28,9.40
2010,08,26,11,29,6.40
2010,08,26,11,30,9.50
2010,08,26,11,31,7.30
2010,08,26,11,32,6.60
2010,08,26,11,33,6.10
2010,08,26,11,34,0.70
2010,08,26,11,35,0.70
2010,08,26,11,36,2.80
2010,08,26,11,37,6.10
2010,08,26,11,38,6.40
2010,08,26,11,39,7.60
2010,08,26,11,40,8.90
2010,08,26,11,41,4.20
2010,08,26,11,42,4.30
2010,08,26,11,43,4.10
2010,08,26,11,44,3.30
2010,08,26,11,45,3.60
2010,08,26,11,46,0.80
2010,08,26,11,47,5.10
2010,08,26,11,48,6.90
2010,08,26,11,49,4.90
2010,08,26,11,50,17.80
2010,08,26,11,51,14.20
2010,08,26,11,52,9.50
2010,08,26,11,53,11.90
2010,08,26,11,54,23.70
2010,08,26,11,55,18.10
2010,08,26,11,56,22.00
2010,08,26,11,57,18.10
2010,08,26,11,58,21.80
2010,08,26,11,59,20.40
2010,08,26,12,00,24.30
2010,08,26,12,01,23.00
2010,08,26,12,02,15.20
2010,08,26,12,03,13.40
2010,08,26,12,04,17.60
2010,08,26,12,05,19.70
2010,08,26,12,06,16.90
2010,08,26,12,07,27.20
2010,08,26,12,08,23.40
2010,08,26,12,09,20.00
2010,08,26,12,10,15.90
2010,08,26,12,11,22.70
2010,08,26,12,12,18.60
2010,08,26,12,13,20.80
2010,08,26,12,14,22.00
2010,08,26,12,15,19.60
2010,08,26,12,16,22.40
2010,08,26,12,17,21.90
2010,08,26,12,18,20.40
2010,08,26,12,19,11.90
2010,08,26,12,20,12.60
2010,08,26,12,21,12.80
2010,08,26,12,22,24.10
2010,08,26,12,23,15.60
2010,08,26,12,24,18.00
2010,08,26,12,25,16.80
2010,08,26,12,26,15.00
2010,08,26,12,27,16.00
2010,08,26,12,28,13.30
2010,08,26,12,29,11.90
2010,08,26,12,30,10.40
2010,08,26,12,31,12.50
2010,08,26,12,32,24.20
2010,08,26,12,33,21.50
2010,08,26,12,34,14.90
2010,08,26,12,35,13.80
2010,08,26,12,36,12.90
2010,08,26,12,37,16.60
2010,08,26,12,38,15.20
2010,08,26,12,39,20.10
2010,08,26,12,40,22.00
2010,08,26,12,41,12.90
2010,08,26,12,42,13.40
2010,08,26,12,43,8.50
2010,08,26,12,44,6.10
2010,08,26,12,45,18.60
2010,08,26,12,46,19.10
2010,08,26,12,47,12.10
2010,08,26,12,48,16.20
2010,08,26,12,49,10.20
2010,08,26,12,50,8.30
2010,08,26,12,51,10.90
2010,08,26,12,52,10.50
2010,08,26,12,53,10.70
2010,08,26,12,54,10.00
2010,08,26,12,55,2.50
2010,08,26,12,56,4.80
2010,08,26,12,57,9.10
2010,08,26,12,58,9.20
2010,08,26,12,59,9.60
2010,08,26,13,00,12.40
2010,08,26,13,01,9.40
2010,08,26,13,02,9.40
2010,08,26,13,03,9.80
2010,08,26,13,04,6.60
2010,08,26,13,05,7.10
2010,08,26,13,06,9.30
2010,08,26,13,07,7.60
2010,08,26,13,08,9.10
2010,08,26,13,09,6.40
2010,08,26,13,10,9.20
2010,08,26,13,11,9.70
2010,08,26,13,12,6.30
2010,08,26,13,13,2.10
2010,08,26,13,14,2.30
2010,08,26,13,15,3.80
2010,08,26,13,16,5.20
2010,08,26,13,17,8.90
2010,08,26,13,18,12.90
2010,08,26,13,19,6.60
2010,08,26,13,20,9.40
2010,08,26,13,21,9.20
2010,08,26,13,22,13.20
2010,08,26,13,23,20.30
2010,08,26,13,24,17.20
2010,08,26,13,25,15.90
2010,08,26,13,26,7.60
2010,08,26,13,27,11.30
2010,08,26,13,28,18.10
2010,08,26,13,29,11.00
2010,08,26,13,30,15.10
2010,08,26,13,31,15.80
2010,08,26,13,32,27.40
2010,08,26,13,33,19.90
2010,08,26,13,34,22.40
2010,08,26,13,35,22.90
2010,08,26,13,36,20.80
2010,08,26,13,37,18.40
2010,08,26,13,38,15.90
2010,08,26,13,39,19.10
2010,08,26,13,40,25.30
2010,08,26,13,41,22.60
2010,08,26,13,42,20.00
2010,08,26,13,43,14.20
2010,08,26,13,44,28.50
2010,08,26,13,45,13.40
2010,08,26,13,46,17.50
2010,08,26,13,47,23.90
2010,08,26,13,48,29.10
2010,08,26,13,49,21.30
2010,08,26,13,50,21.30
2010,08,26,13,51,23.70
2010,08,26,13,52,27.10
2010,08,26,13,53,20.50
2010,08,26,13,54,23.70
2010,08,26,13,55,28.00
2010,08,26,13,56,27.20
2010,08,26,13,57,29.80
2010,08,26,13,58,31.90
2010,08,26,13,59,30.80
2010,08,26,14,00,28.30
2010,08,26,14,01,25.70
2010,08,26,14,02,31.30
2010,08,26,14,03,38.90
2010,08,26,14,04,24.50
2010,08,26,14,05,24.20
2010,08,26,14,06,20.50
2010,08,26,14,07,23.60
2010,08,26,14,08,25.00
2010,08,26,14,09,30.80
2010,08,26,14,10,27.40
2010,08,26,14,11,25.20
2010,08,26,14,12,23.10
2010,08,26,14,13,27.40
2010,08,26,14,14,41.40
2010,08,26,14,15,28.60
2010,08,26,14,16,30.00
2010,08,26,14,17,23.00
2010,08,26,14,18,24.80
2010,08,26,14,19,27.70
2010,08,26,14,20,25.10
2010,08,26,14,21,25.80
2010,08,26,14,22,32.80
2010,08,26,14,23,36.40
2010,08,26,14,24,27.90
2010,08,26,14,25,23.80
2010,08,26,14,26,32.40
2010,08,26,14,27,24.20
2010,08,26,14,28,29.20
2010,08,26,14,29,24.60
2010,08,26,14,30,29.10
2010,08,26,14,31,28.00
2010,08,26,14,32,24.50
2010,08,26,14,33,30.70
2010,08,26,14,34,17.90
2010,08,26,14,35,30.10
2010,08,26,14,36,30.90
2010,08,26,14,37,23.30
2010,08,26,14,38,30.40
2010,08,26,14,39,23.00
2010,08,26,14,40,27.60
2010,08,26,14,41,22.40
2010,08,26,14,42,28.40
2010,08,26,14,43,35.70
2010,08,26,14,44,26.60
2010,08,26,14,45,36.30
2010,08,26,14,46,25.60
2010,08,26,14,47,19.10
2010,08,26,14,48,21.40
2010,08,26,14,49,28.50
2010,08,26,14,50,35.60
2010,08,26,14,51,26.60
2010,08,26,14,52,22.40
2010,08,26,14,53,22.90
2010,08,26,14,54,17.40
2010,08,26,14,55,21.20
2010,08,26,14,56,23.50
2010,08,26,14,57,25.70
2010,08,26,14,58,28.60
2010,08,26,14,59,30.10
2010,08,26,15,00,28.20
2010,08,26,15,01,26.80
2010,08,26,15,02,25.70
2010,08,26,15,03,28.90
2010,08,26,15,04,24.10
2010,08,26,15,05,31.90
2010,08,26,15,06,20.90
2010,08,26,15,07,25.90
2010,08,26,15,08,21.30
2010,08,26,15,09,22.80
2010,08,26,15,10,25.70
2010,08,26,15,11,20.00
2010,08,26,15,12,21.80
2010,08,26,15,13,30.30
2010,08,26,15,14,25.00
2010,08,26,15,15,27.50
2010,08,26,15,16,16.20
2010,08,26,15,17,15.80
2010,08,26,15,18,24.40
2010,08,26,15,19,28.60
2010,08,26,15,20,23.10
2010,08,26,15,21,17.30
2010,08,26,15,22,24.70
2010,08,26,15,23,20.80
2010,08,26,15,24,24.30
2010,08,26,15,25,23.90
2010,08,26,15,26,25.20
2010,08,26,15,27,21.50
2010,08,26,15,28,26.20
2010,08,26,15,29,27.10
2010,08,26,15,30,30.00
2010,08,26,15,31,28.90
2010,08,26,15,32,25.30
2010,08,26,15,33,28.10
2010,08,26,15,34,26.60
2010,08,26,15,35,24.80
2010,08,26,15,36,28.50
2010,08,26,15,37,22.60
2010,08,26,15,38,28.60
2010,08,26,15,39,30.10
2010,08,26,15,40,27.50
2010,08,26,15,41,24.80
2010,08,26,15,42,30.50
2010,08,26,15,43,25.70
2010,08,26,15,44,25.10
2010,08,26,15,45,28.70
2010,08,26,15,46,27.20
2010,08,26,15,47,20.80
2010,08,26,15,48,26.00
2010,08,26,15,49,26.60
2010,08,26,15,50,32.00
2010,08,26,15,51,28.40
2010,08,26,15,52,28.00
2010,08,26,15,53,26.50
2010,08,26,15,54,20.30
2010,08,26,15,55,18.80
2010,08,26,15,56,26.90
2010,08,26,15,57,26.80
2010,08,26,15,58,24.40
2010,08,26,15,59,25.60
2010,08,26,16,00,21.40
2010,08,26,16,01,29.20
2010,08,26,16,02,27.40
2010,08,26,16,03,18.90
2010,08,26,16,04,25.30
2010,08,26,16,05,22.50
2010,08,26,16,06,21.30
2010,08,26,16,07,24.60
2010,08,26,16,08,18.30
2010,08,26,16,09,25.80
2010,08,26,16,10,21.30
2010,08,26,16,11,29.00
2010,08,26,16,12,19.90
2010,08,26,16,13,20.20
2010,08,26,16,14,25.10
2010,08,26,16,15,27.20
2010,08,26,16,16,23.70
2010,08,26,16,17,15.50
2010,08,26,16,18,23.50
2010,08,26,16,19,24.90
2010,08,26,16,20,22.10
2010,08,26,16,21,26.20
2010,08,26,16,22,23.50
2010,08,26,16,23,23.20
2010,08,26,16,24,24.40
2010,08,26,16,25,26.10
2010,08,26,16,26,23.20
2010,08,26,16,27,20.20
2010,08,26,16,28,26.60
2010,08,26,16,29,19.90
2010,08,26,16,30,15.10
2010,08,26,16,31,24.40
2010,08,26,16,32,23.30
2010,08,26,16,33,19.70
2010,08,26,16,34,15.20
2010,08,26,16,35,17.00
2010,08,26,16,36,25.40
2010,08,26,16,37,24.70
2010,08,26,16,38,28.40
2010,08,26,16,39,20.20
2010,08,26,16,40,24.50
2010,08,26,16,41,27.40
2010,08,26,16,42,24.60
2010,08,26,16,43,23.10
2010,08,26,16,44,23.80
2010,08,26,16,45,17.90
2010,08,26,16,46,23.20
2010,08,26,16,47,24.70
2010,08,26,16,48,17.50
2010,08,26,16,49,27.20
2010,08,26,16,50,24.80
2010,08,26,16,51,26.00
2010,08,26,16,52,25.20
2010,08,26,16,53,27.50
2010,08,26,16,54,29.20
2010,08,26,16,55,23.60
2010,08,26,16,56,28.30
2010,08,26,16,57,24.10
2010,08,26,16,58,22.20
2010,08,26,16,59,23.50
2010,08,26,17,00,22.20
2010,08,26,17,01,20.90
2010,08,26,17,02,27.70
2010,08,26,17,03,21.30
2010,08,26,17,04,25.10
2010,08,26,17,05,25.70
2010,08,26,17,06,28.70
2010,08,26,17,07,26.10
2010,08,26,17,08,18.00
2010,08,26,17,09,13.70
2010,08,26,17,10,18.20
2010,08,26,17,11,23.20
2010,08,26,17,12,22.10
2010,08,26,17,13,18.60
2010,08,26,17,14,20.50
2010,08,26,17,15,20.10
2010,08,26,17,16,18.30
2010,08,26,17,17,23.80
2010,08,26,17,18,19.60
2010,08,26,17,19,21.10
2010,08,26,17,20,21.90
2010,08,26,17,21,14.10
2010,08,26,17,22,18.20
2010,08,26,17,23,21.30
2010,08,26,17,24,17.00
2010,08,26,17,25,17.00
2010,08,26,17,26,22.10
2010,08,26,17,27,16.60
2010,08,26,17,28,18.80
2010,08,26,17,29,12.40
2010,08,26,17,30,15.50
2010,08,26,17,31,21.30
2010,08,26,17,32,20.90
2010,08,26,17,33,14.70
2010,08,26,17,34,16.10
2010,08,26,17,35,19.90
2010,08,26,17,36,19.50
2010,08,26,17,37,22.50
2010,08,26,17,38,19.80
2010,08,26,17,39,20.60
2010,08,26,17,40,16.80
2010,08,26,17,41,12.50
2010,08,26,17,42,9.10
2010,08,26,17,43,14.50
2010,08,26,17,44,15.00
2010,08,26,17,45,18.60
2010,08,26,17,46,29.80
2010,08,26,17,47,18.00
2010,08,26,17,48,18.60
2010,08,26,17,49,21.00
2010,08,26,17,50,23.40
2010,08,26,17,51,17.00